Home   Weather   Lomé   Past weeks

Flag for Togo Past Weather in Lomé, Togo — Yesterday and Last 2 Weeks

Now
88 °F

Clear.


Feels Like: 96 °F
Forecast: N/A
Wind: 15 mph from Southwest

Location: Lome Airport

Current Time: Jan 17, 2017 at 5:39:58 pm

Latest Report: Jan 17, 2017 at 4:00 pm


Visibility: 5 mi

Pressure: 29.71 "Hg

Humidity: 62%

Dew Point: 73 °F

Location of LoméLocation

Past Weather in Lomé — Graph

°F

Lomé Temperature Yesterday

Maximum temperature yesterday: 90 °F (at 12:00 pm)
Minimum temperature yesterday: 72 °F (at 6:00 am)
Average temperature yesterday: 82 °F

High & Low Weather Summary for the Past Weeks

 TemperatureHumidityPressure
High93 °F (Jan 4, 12:00 pm)100% (Jan 3, 5:00 am)29.92 "Hg (Jan 3, 5:00 am)
Low70 °F (Jan 15, 6:00 am)15% (Jan 14, 4:00 pm)29.71 "Hg (Jan 10, 4:00 pm)
Average83 °F79%29.83 "Hg
* Reported Jan 2 4:00 pm — Jan 17 4:00 pm, Lomé, Weather by CustomWeather, © 2017

Note: Actual official high and low records may vary slightly from our data, if they occured in-between our weather recording intervals... More about our weather records

Advertising

Lomé Weather History for the Previous 24 Hours

Scroll right to see more
 ConditionsComfort  
Time TempWeatherWind HumidityBarometerVisibility
4:00 pm
Tue, Jan 17
88 °FClear.15 mph62%29.71 "Hg5 mi
3:00 pm90 °FClear.14 mph55%29.71 "Hg5 mi
2:00 pm90 °FClear.13 mph59%29.74 "Hg5 mi
1:00 pm91 °FClear.15 mph52%29.77 "Hg5 mi
12:00 pm91 °FClear.12 mph49%29.80 "Hg5 mi
11:00 am91 °FClear.8 mph46%29.80 "Hg5 mi
10:00 am88 °FClear.6 mph55%29.83 "Hg5 mi
9:00 am82 °FClear.7 mph70%29.83 "Hg4 mi
8:00 am79 °FClear.5 mph89%29.83 "Hg4 mi
3:00 am79 °FClear.1 mph94%29.80 "Hg4 mi
2:00 am79 °FClear.7 mph94%29.80 "Hg5 mi
1:00 am81 °FClear.6 mph94%29.80 "Hg5 mi
12:00 am81 °FClear.5 mph89%29.83 "Hg5 mi
11:00 pm
Mon, Jan 16
81 °FClear.7 mph89%29.83 "Hg5 mi
10:00 pm82 °FClear.7 mph89%29.83 "Hg5 mi
9:00 pm82 °FClear.8 mph84%29.83 "Hg5 mi
8:00 pm82 °FClear.8 mph84%29.80 "Hg5 mi
7:00 pm82 °FClear.8 mph84%29.80 "Hg5 mi
6:00 pm84 °FClear.10 mph79%29.77 "Hg5 mi
5:00 pm86 °FClear.12 mph66%29.74 "Hg5 mi
Weather by CustomWeather, © 2017

See weather overviewHow to use our weather pages